WMT156 LUKK-EPWR

Flight info

Callsign WMT156
Flight time 1h 42m
Altitude 36000
Route NUNTA DCT PASKA DCT REPTO DCT BUZZE DCT SOMET DCT SAT DCT KENIN DCT KOJOT DCT RAZEC DCT LENOV L619 LUMVE
Aircraft A320/M-SDE3FGHIRWY/LB1

Departure

Time 2026-04-29 09:56
Airport Chişinău International Airport (LUKK)

Arrival

Time 2026-04-29 11:39
Airport Copernicus Wrocław Airport (EPWR)
Time Latitude Longitude Altitude Speed Heading
2026-04-29 09:13 46.93375 28.93603 408 ft 0 kts
2026-04-29 09:46 46.93376 28.93604 408 ft 0 kts
2026-04-29 09:46 46.93383 28.93605 408 ft 0 kts
2026-04-29 09:47 46.93384 28.93605 408 ft 1 kts
2026-04-29 09:47 46.93398 28.93602 406 ft 3 kts 341°
2026-04-29 09:47 46.93413 28.93569 408 ft 5 kts 289°
2026-04-29 09:47 46.93415 28.93505 408 ft 8 kts 247°
2026-04-29 09:48 46.93356 28.93480 407 ft 10 kts 187°
2026-04-29 09:48 46.93276 28.93465 408 ft 15 kts 187°
2026-04-29 09:48 46.93171 28.93443 408 ft 11 kts 204°
2026-04-29 09:48 46.93161 28.93326 410 ft 14 kts 277°
2026-04-29 09:49 46.93174 28.93174 410 ft 16 kts 277°
2026-04-29 09:49 46.93189 28.92995 409 ft 19 kts 276°
2026-04-29 09:49 46.93207 28.92786 408 ft 22 kts 277°
2026-04-29 09:49 46.93226 28.92551 403 ft 25 kts 277°
2026-04-29 09:50 46.93248 28.92292 407 ft 26 kts 277°
2026-04-29 09:50 46.93261 28.92076 407 ft 16 kts 258°
2026-04-29 09:50 46.93167 28.92009 408 ft 16 kts 194°
2026-04-29 09:50 46.93052 28.91988 408 ft 14 kts 178°
2026-04-29 09:51 46.92947 28.91992 408 ft 16 kts 178°
2026-04-29 09:51 46.92881 28.91996 408 ft 0 kts 178°
2026-04-29 09:52 46.92870 28.91996 406 ft 3 kts 178°
2026-04-29 09:52 46.92838 28.91998 408 ft 7 kts 178°
2026-04-29 09:52 46.92772 28.91979 409 ft 13 kts 223°
2026-04-29 09:53 46.92754 28.91818 407 ft 20 kts 268°
2026-04-29 09:53 46.92749 28.91595 408 ft 23 kts 268°
2026-04-29 09:53 46.92744 28.91355 407 ft 25 kts 268°
2026-04-29 09:53 46.92739 28.91094 408 ft 26 kts 268°
2026-04-29 09:54 46.92739 28.90878 406 ft 16 kts 288°
2026-04-29 09:54 46.92757 28.90756 407 ft 10 kts 214°
2026-04-29 09:54 46.92733 28.90787 408 ft 5 kts 103°
2026-04-29 09:54 46.92733 28.90821 405 ft 0 kts 87°
2026-04-29 09:55 46.92733 28.90824 404 ft 1 kts 87°
2026-04-29 09:55 46.92736 28.90924 409 ft 37 kts 88°
2026-04-29 09:55 46.92751 28.91659 407 ft 104 kts 88°
2026-04-29 09:56 46.92777 28.92977 410 ft 152 kts 88°
2026-04-29 09:56 46.92810 28.94596 878 ft 158 kts 87°
2026-04-29 09:56 46.92801 28.96186 1569 ft 155 kts 89°
2026-04-29 09:56 46.92790 28.97846 1971 ft 173 kts 88°
2026-04-29 09:57 46.92818 28.99725 2249 ft 198 kts 87°
2026-04-29 09:57 46.92850 29.01915 2460 ft 231 kts 88°
2026-04-29 09:57 46.92906 29.04403 2933 ft 253 kts 84°
2026-04-29 09:57 46.93494 29.06822 3739 ft 259 kts 50°
2026-04-29 09:58 46.94975 29.08266 4656 ft 261 kts 14°
2026-04-29 09:58 46.96600 29.08259 5492 ft 264 kts 343°
2026-04-29 09:58 46.98148 29.06837 6353 ft 267 kts 309°
2026-04-29 09:58 46.99030 29.04471 7285 ft 266 kts 289°
2026-04-29 09:59 46.99592 29.01893 7981 ft 266 kts 286°
2026-04-29 09:59 47.00125 28.99323 8169 ft 262 kts 286°
2026-04-29 09:59 47.00654 28.96774 8212 ft 261 kts 286°
2026-04-29 09:59 47.01181 28.94237 8217 ft 260 kts 286°
2026-04-29 10:00 47.01835 28.91767 8216 ft 260 kts 294°
2026-04-29 10:00 47.02647 28.89395 8229 ft 261 kts 296°
2026-04-29 10:00 47.03524 28.87033 8924 ft 264 kts 297°
2026-04-29 10:00 47.04402 28.84694 9980 ft 260 kts 296°
2026-04-29 10:01 47.05274 28.82337 10627 ft 271 kts 296°
2026-04-29 10:01 47.06198 28.79785 10852 ft 294 kts 295°
2026-04-29 10:01 47.07170 28.77066 11335 ft 305 kts 295°
2026-04-29 10:01 47.08158 28.74282 12034 ft 309 kts 295°
2026-04-29 10:02 47.09138 28.71507 12760 ft 312 kts 295°
2026-04-29 10:02 47.10136 28.68676 13500 ft 314 kts 295°
2026-04-29 10:02 47.10989 28.65723 14166 ft 315 kts 285°
2026-04-29 10:02 47.11391 28.62558 14791 ft 317 kts 274°
2026-04-29 10:03 47.11390 28.59310 15413 ft 320 kts 269°
2026-04-29 10:03 47.11347 28.55992 16036 ft 322 kts 270°
2026-04-29 10:03 47.11313 28.52733 16641 ft 324 kts 270°
2026-04-29 10:03 47.11281 28.49412 17253 ft 327 kts 270°
2026-04-29 10:04 47.11247 28.46060 17851 ft 330 kts 270°
2026-04-29 10:04 47.11208 28.42675 18481 ft 332 kts 270°
2026-04-29 10:04 47.11166 28.39266 19028 ft 335 kts 270°
2026-04-29 10:04 47.11125 28.35833 19592 ft 337 kts 270°
2026-04-29 10:05 47.11085 28.32381 20136 ft 339 kts 270°
2026-04-29 10:05 47.11044 28.28909 20694 ft 341 kts 270°
2026-04-29 10:05 47.11001 28.25415 21259 ft 343 kts 270°
2026-04-29 10:05 47.10959 28.21911 21812 ft 344 kts 270°
2026-04-29 10:06 47.10915 28.18385 22329 ft 346 kts 270°
2026-04-29 10:06 47.10866 28.14840 22845 ft 348 kts 270°
2026-04-29 10:06 47.10815 28.11273 23353 ft 350 kts 270°
2026-04-29 10:06 47.10761 28.07684 23838 ft 352 kts 270°
2026-04-29 10:07 47.10704 28.04068 24259 ft 354 kts 270°
2026-04-29 10:07 47.10646 28.00450 24650 ft 356 kts 270°
2026-04-29 10:07 47.10588 27.96811 25083 ft 357 kts 271°
2026-04-29 10:07 47.10531 27.93160 25517 ft 358 kts 271°
2026-04-29 10:08 47.10474 27.89501 25949 ft 359 kts 271°
2026-04-29 10:08 47.10540 27.85841 26365 ft 359 kts 278°
2026-04-29 10:08 47.11040 27.82253 26801 ft 360 kts 284°
2026-04-29 10:08 47.11677 27.78699 27217 ft 360 kts 284°
2026-04-29 10:09 47.12299 27.75177 27637 ft 362 kts 284°
2026-04-29 10:09 47.12924 27.71592 28052 ft 363 kts 284°
2026-04-29 10:09 47.13549 27.67988 28469 ft 364 kts 284°
2026-04-29 10:09 47.14172 27.64378 28881 ft 365 kts 284°
2026-04-29 10:10 47.14799 27.60751 29284 ft 367 kts 284°
2026-04-29 10:10 47.15428 27.57109 29680 ft 368 kts 284°
2026-04-29 10:10 47.16059 27.53451 30055 ft 370 kts 284°
2026-04-29 10:10 47.16692 27.49792 30524 ft 368 kts 284°
2026-04-29 10:11 47.17322 27.46147 30947 ft 367 kts 284°
2026-04-29 10:11 47.17949 27.42499 31320 ft 368 kts 284°
2026-04-29 10:11 47.18574 27.38852 31671 ft 369 kts 284°
2026-04-29 10:11 47.19201 27.35180 32019 ft 370 kts 284°
2026-04-29 10:12 47.19827 27.31503 32386 ft 371 kts 284°
2026-04-29 10:12 47.20454 27.27814 32757 ft 372 kts 284°
2026-04-29 10:12 47.21078 27.24125 33134 ft 372 kts 284°
2026-04-29 10:12 47.21704 27.20422 33502 ft 373 kts 284°
2026-04-29 10:13 47.22331 27.16717 33865 ft 374 kts 284°
2026-04-29 10:13 47.22961 27.13005 34226 ft 374 kts 284°
2026-04-29 10:13 47.23583 27.09329 34525 ft 375 kts 284°
2026-04-29 10:13 47.24211 27.05595 34804 ft 376 kts 284°
2026-04-29 10:14 47.24840 27.01844 35066 ft 378 kts 284°
2026-04-29 10:14 47.25471 26.98081 35296 ft 380 kts 284°
2026-04-29 10:14 47.26105 26.94295 35537 ft 381 kts 284°
2026-04-29 10:14 47.26738 26.90500 35791 ft 382 kts 284°
2026-04-29 10:15 47.27369 26.86691 36049 ft 383 kts 284°
2026-04-29 10:15 47.28002 26.82858 36194 ft 385 kts 284°
2026-04-29 10:15 47.29285 26.75098 36234 ft 393 kts 284°
2026-04-29 10:16 47.30361 26.68576 36231 ft 394 kts 284°
2026-04-29 10:16 47.31856 26.59430 36233 ft 395 kts 284°
2026-04-29 10:17 47.33138 26.51543 36233 ft 396 kts 284°
2026-04-29 10:17 47.34318 26.43610 36236 ft 397 kts 282°
2026-04-29 10:18 47.35344 26.35608 36238 ft 397 kts 281°
2026-04-29 10:18 47.36351 26.27586 36241 ft 397 kts 281°
2026-04-29 10:19 47.37382 26.19575 36239 ft 397 kts 282°
2026-04-29 10:19 47.38428 26.11543 36232 ft 398 kts 282°
2026-04-29 10:20 47.39469 26.03499 36231 ft 399 kts 282°
2026-04-29 10:20 47.40498 25.95454 36230 ft 399 kts 281°
2026-04-29 10:21 47.41509 25.87456 36217 ft 398 kts 282°
2026-04-29 10:21 47.42520 25.79437 36221 ft 397 kts 282°
2026-04-29 10:22 47.43531 25.71424 36215 ft 397 kts 282°
2026-04-29 10:22 47.44540 25.63407 36218 ft 397 kts 282°
2026-04-29 10:23 47.45531 25.55380 36220 ft 397 kts 281°
2026-04-29 10:23 47.46353 25.48705 36221 ft 397 kts 282°
2026-04-29 10:24 47.47498 25.39365 36214 ft 397 kts 281°
2026-04-29 10:24 47.48476 25.31332 36213 ft 397 kts 281°
2026-04-29 10:25 47.49295 25.24587 36206 ft 397 kts 281°
2026-04-29 10:25 47.50257 25.16593 36208 ft 397 kts 281°
2026-04-29 10:26 47.51220 25.08551 36185 ft 397 kts 281°
2026-04-29 10:26 47.52181 25.00498 36185 ft 397 kts 281°
2026-04-29 10:27 47.53609 24.88420 36171 ft 397 kts 281°
2026-04-29 10:28 47.54543 24.80421 36161 ft 397 kts 281°
2026-04-29 10:28 47.55481 24.72364 36161 ft 397 kts 281°
2026-04-29 10:29 47.56412 24.64308 36155 ft 397 kts 281°
2026-04-29 10:29 47.57336 24.56248 36167 ft 397 kts 281°
2026-04-29 10:30 47.58261 24.48172 36159 ft 397 kts 281°
2026-04-29 10:30 47.59176 24.40104 36156 ft 397 kts 281°
2026-04-29 10:31 47.60092 24.32019 36153 ft 398 kts 281°
2026-04-29 10:31 47.60992 24.23979 36156 ft 397 kts 281°
2026-04-29 10:32 47.61892 24.15893 36157 ft 398 kts 281°
2026-04-29 10:32 47.62785 24.07806 36159 ft 398 kts 281°
2026-04-29 10:33 47.63666 23.99703 36159 ft 398 kts 280°
2026-04-29 10:33 47.64245 23.91531 36142 ft 398 kts 277°
2026-04-29 10:34 47.64596 23.83330 36166 ft 398 kts 276°
2026-04-29 10:34 47.65001 23.75152 36182 ft 397 kts 278°
2026-04-29 10:35 47.65618 23.67037 36179 ft 396 kts 279°
2026-04-29 10:35 47.66291 23.58982 36177 ft 396 kts 279°
2026-04-29 10:36 47.66932 23.50876 36178 ft 396 kts 279°
2026-04-29 10:36 47.67529 23.42758 36181 ft 396 kts 278°
2026-04-29 10:37 47.68107 23.34639 36184 ft 396 kts 278°
2026-04-29 10:37 47.68696 23.26514 36188 ft 395 kts 279°
2026-04-29 10:38 47.69280 23.18402 36198 ft 395 kts 278°
2026-04-29 10:38 47.70025 23.10326 36203 ft 394 kts 282°
2026-04-29 10:39 47.71065 23.02346 36205 ft 393 kts 283°
2026-04-29 10:39 47.72153 22.94432 36211 ft 392 kts 287°
2026-04-29 10:40 47.74465 22.87160 36193 ft 391 kts 306°
2026-04-29 10:40 47.78198 22.81225 36199 ft 393 kts 313°
2026-04-29 10:41 47.82025 22.75489 36185 ft 393 kts 312°
2026-04-29 10:41 47.85865 22.69696 36195 ft 393 kts 312°
2026-04-29 10:42 47.89709 22.63896 36200 ft 393 kts 312°
2026-04-29 10:42 47.93555 22.58085 36233 ft 393 kts 312°
2026-04-29 10:43 47.97393 22.52255 36221 ft 394 kts 312°
2026-04-29 10:43 48.01242 22.46400 36216 ft 395 kts 312°
2026-04-29 10:44 48.05090 22.40535 36214 ft 395 kts 312°
2026-04-29 10:44 48.08942 22.34660 36222 ft 395 kts 312°
2026-04-29 10:45 48.12793 22.28782 36222 ft 395 kts 312°
2026-04-29 10:45 48.16614 22.22927 36236 ft 395 kts 312°
2026-04-29 10:46 48.20459 22.17020 36236 ft 395 kts 312°
2026-04-29 10:46 48.24295 22.11111 36236 ft 395 kts 312°
2026-04-29 10:47 48.28126 22.05192 36267 ft 395 kts 312°
2026-04-29 10:47 48.31964 21.99254 36254 ft 396 kts 312°
2026-04-29 10:48 48.35807 21.93292 36241 ft 397 kts 314°
2026-04-29 10:48 48.40020 21.87870 36245 ft 399 kts 318°
2026-04-29 10:49 48.44282 21.82509 36246 ft 399 kts 317°
2026-04-29 10:49 48.48540 21.77125 36248 ft 400 kts 317°
2026-04-29 10:50 48.52772 21.71755 36253 ft 400 kts 317°
2026-04-29 10:50 48.57028 21.66330 36256 ft 400 kts 317°
2026-04-29 10:51 48.61283 21.60898 36286 ft 400 kts 317°
2026-04-29 10:51 48.65543 21.55463 36274 ft 401 kts 317°
2026-04-29 10:52 48.69812 21.50020 36270 ft 401 kts 317°
2026-04-29 10:52 48.74074 21.44548 36267 ft 401 kts 317°
2026-04-29 10:53 48.78327 21.39060 36252 ft 401 kts 317°
2026-04-29 10:53 48.82584 21.33576 36260 ft 401 kts 317°
2026-04-29 10:54 48.86814 21.28127 36260 ft 401 kts 317°
2026-04-29 10:54 48.91064 21.22623 36284 ft 401 kts 317°
2026-04-29 10:55 48.95339 21.17117 36265 ft 403 kts 321°
2026-04-29 10:55 49.00367 21.13239 36258 ft 412 kts 340°
2026-04-29 10:56 49.05962 21.11185 36241 ft 414 kts 342°
2026-04-29 10:56 49.11567 21.09127 36243 ft 415 kts 342°
2026-04-29 10:57 49.17153 21.07071 36251 ft 415 kts 342°
2026-04-29 10:57 49.22780 21.05004 36262 ft 415 kts 342°
2026-04-29 10:58 49.28409 21.02937 36259 ft 415 kts 341°
2026-04-29 10:58 49.33588 20.99465 36259 ft 407 kts 323°
2026-04-29 10:59 49.37626 20.93515 36233 ft 403 kts 308°
2026-04-29 10:59 49.41164 20.86822 36243 ft 403 kts 309°
2026-04-29 11:00 49.44717 20.80136 36286 ft 404 kts 309°
2026-04-29 11:00 49.48261 20.73425 36274 ft 405 kts 309°
2026-04-29 11:01 49.51813 20.66677 36273 ft 405 kts 309°
2026-04-29 11:01 49.55359 20.59915 36246 ft 406 kts 309°
2026-04-29 11:02 49.58904 20.53144 36271 ft 406 kts 309°
2026-04-29 11:02 49.62441 20.46367 36278 ft 406 kts 309°
2026-04-29 11:03 49.65974 20.39581 36282 ft 406 kts 309°
2026-04-29 11:03 49.69506 20.32784 36283 ft 406 kts 309°
2026-04-29 11:04 49.73033 20.25974 36287 ft 405 kts 309°
2026-04-29 11:04 49.76554 20.19154 36291 ft 406 kts 309°
2026-04-29 11:05 49.80071 20.12319 36296 ft 406 kts 309°
2026-04-29 11:05 49.83587 20.05473 36310 ft 407 kts 309°
2026-04-29 11:06 49.87112 19.98597 36300 ft 408 kts 309°
2026-04-29 11:06 49.90639 19.91699 36306 ft 408 kts 309°
2026-04-29 11:07 49.94142 19.84834 36340 ft 408 kts 309°
2026-04-29 11:07 49.97663 19.77924 36358 ft 408 kts 309°
2026-04-29 11:08 50.01187 19.70999 36365 ft 408 kts 309°
2026-04-29 11:08 50.04126 19.65183 36325 ft 408 kts 309°
2026-04-29 11:09 50.07628 19.58242 36329 ft 408 kts 309°
2026-04-29 11:09 50.11105 19.51329 36309 ft 408 kts 309°
2026-04-29 11:10 50.14596 19.44364 36321 ft 408 kts 309°
2026-04-29 11:10 50.18087 19.37393 36364 ft 408 kts 309°
2026-04-29 11:11 50.21577 19.30392 36350 ft 409 kts 309°
2026-04-29 11:11 50.25077 19.23386 36353 ft 409 kts 309°
2026-04-29 11:12 50.28574 19.16354 36340 ft 410 kts 309°
2026-04-29 11:12 50.32072 19.09303 36353 ft 410 kts 309°
2026-04-29 11:13 50.35559 19.02230 36358 ft 410 kts 309°
2026-04-29 11:13 50.39047 18.95151 36362 ft 410 kts 309°
2026-04-29 11:14 50.42504 18.88110 36366 ft 410 kts 309°
2026-04-29 11:14 50.45984 18.81017 36340 ft 410 kts 309°
2026-04-29 11:15 50.49455 18.73922 36367 ft 410 kts 309°
2026-04-29 11:15 50.52925 18.66818 36374 ft 409 kts 309°
2026-04-29 11:15 50.54653 18.63258 36271 ft 411 kts 310°
2026-04-29 11:16 50.56385 18.59685 35816 ft 410 kts 309°
2026-04-29 11:16 50.58108 18.56126 35342 ft 407 kts 310°
2026-04-29 11:16 50.59823 18.52593 34875 ft 405 kts 310°
2026-04-29 11:16 50.61525 18.49085 34428 ft 402 kts 309°
2026-04-29 11:17 50.63218 18.45577 33883 ft 400 kts 309°
2026-04-29 11:17 50.64901 18.42080 33359 ft 400 kts 309°
2026-04-29 11:17 50.66567 18.38587 32827 ft 397 kts 308°
2026-04-29 11:17 50.68194 18.35076 32308 ft 394 kts 307°
2026-04-29 11:18 50.69783 18.31582 31799 ft 389 kts 307°
2026-04-29 11:18 50.71345 18.28120 31289 ft 385 kts 307°
2026-04-29 11:18 50.72867 18.24734 30822 ft 381 kts 306°
2026-04-29 11:18 50.74228 18.21160 30314 ft 378 kts 299°
2026-04-29 11:19 50.75431 18.17483 29739 ft 374 kts 299°
2026-04-29 11:19 50.76625 18.13857 29175 ft 370 kts 300°
2026-04-29 11:19 50.77813 18.10264 28608 ft 366 kts 300°
2026-04-29 11:19 50.78989 18.06715 28013 ft 363 kts 300°
2026-04-29 11:20 50.80158 18.03189 27476 ft 360 kts 300°
2026-04-29 11:20 50.81314 17.99691 26952 ft 357 kts 300°
2026-04-29 11:20 50.82459 17.96210 26431 ft 355 kts 300°
2026-04-29 11:20 50.83589 17.92756 25922 ft 352 kts 300°
2026-04-29 11:21 50.84693 17.89375 25438 ft 349 kts 301°
2026-04-29 11:21 50.85806 17.85969 24947 ft 347 kts 301°
2026-04-29 11:21 50.86908 17.82589 24467 ft 344 kts 301°
2026-04-29 11:21 50.88003 17.79223 23992 ft 342 kts 301°
2026-04-29 11:22 50.89090 17.75875 23437 ft 341 kts 301°
2026-04-29 11:22 50.90172 17.72544 22869 ft 339 kts 301°
2026-04-29 11:22 50.91250 17.69244 22321 ft 336 kts 302°
2026-04-29 11:22 50.92398 17.66030 21746 ft 333 kts 304°
2026-04-29 11:23 50.93600 17.62903 21219 ft 331 kts 306°
2026-04-29 11:23 50.94823 17.59824 20734 ft 328 kts 306°
2026-04-29 11:23 50.96038 17.56777 20221 ft 326 kts 306°
2026-04-29 11:23 50.97239 17.53738 19727 ft 324 kts 306°
2026-04-29 11:24 50.98415 17.50724 19263 ft 320 kts 306°
2026-04-29 11:24 50.99575 17.47726 18801 ft 316 kts 306°
2026-04-29 11:24 51.00714 17.44764 18309 ft 314 kts 306°
2026-04-29 11:24 51.01844 17.41813 17760 ft 311 kts 306°
2026-04-29 11:25 51.02962 17.38888 17247 ft 308 kts 306°
2026-04-29 11:25 51.04071 17.35982 16750 ft 306 kts 306°
2026-04-29 11:25 51.05173 17.33094 16281 ft 304 kts 306°
2026-04-29 11:25 51.06256 17.30256 15844 ft 303 kts 306°
2026-04-29 11:26 51.08448 17.24534 14874 ft 302 kts 307°
2026-04-29 11:26 51.09537 17.21689 14406 ft 301 kts 307°
2026-04-29 11:26 51.10619 17.18842 13922 ft 300 kts 307°
2026-04-29 11:27 51.11694 17.16000 13378 ft 300 kts 306°
2026-04-29 11:27 51.12767 17.13156 12871 ft 300 kts 306°
2026-04-29 11:27 51.13823 17.10294 12381 ft 301 kts 303°
2026-04-29 11:27 51.14800 17.07333 11904 ft 302 kts 301°
2026-04-29 11:28 51.15720 17.04334 11463 ft 302 kts 300°
2026-04-29 11:28 51.16615 17.01326 11155 ft 297 kts 300°
2026-04-29 11:28 51.17487 16.98381 10884 ft 291 kts 299°
2026-04-29 11:28 51.18348 16.95494 10608 ft 283 kts 300°
2026-04-29 11:29 51.19190 16.92706 10333 ft 279 kts 300°
2026-04-29 11:29 51.20033 16.89941 10027 ft 276 kts 300°
2026-04-29 11:29 51.20874 16.87191 9705 ft 275 kts 300°
2026-04-29 11:29 51.21701 16.84490 9430 ft 273 kts 300°
2026-04-29 11:30 51.22534 16.81770 9156 ft 273 kts 300°
2026-04-29 11:30 51.23363 16.79053 8888 ft 272 kts 300°
2026-04-29 11:30 51.24190 16.76336 8624 ft 271 kts 300°
2026-04-29 11:30 51.25013 16.73620 8369 ft 271 kts 300°
2026-04-29 11:31 51.25830 16.70917 8100 ft 270 kts 300°
2026-04-29 11:31 51.26646 16.68220 7836 ft 269 kts 300°
2026-04-29 11:31 51.27461 16.65531 7583 ft 269 kts 300°
2026-04-29 11:31 51.28272 16.62848 7324 ft 268 kts 299°
2026-04-29 11:32 51.29070 16.60169 7067 ft 267 kts 297°
2026-04-29 11:32 51.29384 16.57254 6816 ft 272 kts 265°
2026-04-29 11:32 51.28634 16.54489 6544 ft 276 kts 229°
2026-04-29 11:32 51.27080 16.52753 6277 ft 273 kts 206°
2026-04-29 11:33 51.25376 16.51433 5999 ft 271 kts 204°
2026-04-29 11:33 51.23583 16.50752 5733 ft 263 kts 174°
2026-04-29 11:33 51.21915 16.51679 5534 ft 250 kts 140°
2026-04-29 11:33 51.20846 16.53757 5201 ft 241 kts 112°
2026-04-29 11:34 51.20131 16.56145 4840 ft 243 kts 111°
2026-04-29 11:34 51.19398 16.58598 4459 ft 248 kts 111°
2026-04-29 11:34 51.18651 16.61084 4081 ft 250 kts 111°
2026-04-29 11:34 51.17894 16.63590 3725 ft 250 kts 112°
2026-04-29 11:35 51.17153 16.66016 3367 ft 235 kts 112°
2026-04-29 11:35 51.16466 16.68239 3089 ft 212 kts 112°
2026-04-29 11:35 51.15843 16.70255 3004 ft 196 kts 111°
2026-04-29 11:35 51.15266 16.72140 2694 ft 182 kts 111°
2026-04-29 11:36 51.14731 16.73888 2341 ft 164 kts 109°
2026-04-29 11:36 51.14247 16.75421 2016 ft 148 kts 112°
2026-04-29 11:36 51.13805 16.76844 1774 ft 138 kts 110°
2026-04-29 11:36 51.13401 16.78200 1522 ft 134 kts 110°
2026-04-29 11:37 51.13012 16.79531 1322 ft 132 kts 108°
2026-04-29 11:37 51.12605 16.80848 1102 ft 133 kts 109°
2026-04-29 11:37 51.12201 16.82177 971 ft 134 kts 106°
2026-04-29 11:37 51.11803 16.83520 829 ft 133 kts 108°
2026-04-29 11:38 51.11406 16.84860 690 ft 134 kts 111°
2026-04-29 11:38 51.10989 16.86200 488 ft 136 kts 111°
2026-04-29 11:38 51.10605 16.87492 387 ft 115 kts 116°
2026-04-29 11:38 51.10327 16.88388 404 ft 65 kts 116°
2026-04-29 11:39 51.10209 16.88768 403 ft 15 kts 125°
2026-04-29 11:39 51.10186 16.88836 403 ft 3 kts 356°
2026-04-29 11:39 51.10213 16.88758 402 ft 13 kts 292°
2026-04-29 11:39 51.10267 16.88583 401 ft 20 kts 296°
2026-04-29 11:40 51.10331 16.88378 406 ft 22 kts 296°
2026-04-29 11:40 51.10399 16.88153 404 ft 24 kts 296°
2026-04-29 11:40 51.10476 16.87903 403 ft 26 kts 296°
2026-04-29 11:40 51.10555 16.87645 399 ft 25 kts 296°
2026-04-29 11:41 51.10627 16.87409 399 ft 21 kts 296°
2026-04-29 11:41 51.10685 16.87246 403 ft 13 kts 326°
2026-04-29 11:41 51.10769 16.87283 403 ft 14 kts 26°
2026-04-29 11:41 51.10863 16.87355 403 ft 16 kts 26°
2026-04-29 11:42 51.10951 16.87434 403 ft 11 kts 61°
2026-04-29 11:42 51.10923 16.87557 401 ft 12 kts 116°
2026-04-29 11:42 51.10881 16.87692 403 ft 15 kts 116°
2026-04-29 11:42 51.10846 16.87808 403 ft 8 kts 116°
2026-04-29 11:43 51.10872 16.87862 403 ft 8 kts 26°
2026-04-29 11:43 51.10893 16.87878 401 ft 3 kts 26°
2026-04-29 11:43 51.10901 16.87884 400 ft 0 kts 25°